Regional Weather Roundup
Issued by NWS

Home | Current Version | Previous Version | Graphics & Text | Print | Product List | Glossary On
Versions: 1 2 3 4 5 6 7 8 9 10 11 12 13 14 15 16 17 18 19 20 21 22 23 24 25 26 27 28
000
ASUS45 KCYS 051110
RWRWY

WYOMING REGIONAL WEATHER ROUNDUP
NATIONAL WEATHER SERVICE CHEYENNE WY
400 AM MST MON DEC 05 2016

NOTE:  "FAIR" INDICATES FEW OR NO CLOUDS BELOW 12,000 FEET
WITH NO SIGNIFICANT WEATHER AND/OR OBSTRUCTIONS TO VISIBILITY.

WYZ001-051200-
YELLOWSTONE NATIONAL PARK

CITY           SKY/WX    TMP DP  RH WIND       PRES   REMARKS
LK YELLOWSTONE   N/A     10   4  76 W10G23    29.57R WCI  -4
W YELLOWSTONE  NOT AVBL

$$
WYZ002>013-054>058-071-098>099-051200-
NORTHERN WYOMING

CITY           SKY/WX    TMP DP  RH WIND       PRES   REMARKS
JACKSON        CLOUDY    19  16  86 SW22G31   29.65R VSB 1   WCI   3
CODY           LGT SNOW  23  19  86 N16G28    29.59S FOG     WCI  10
GREYBULL       CLOUDY    33  13  43 NW33G41   29.55R WCI  18
WORLAND        LGT SNOW  27  25  92 W8        29.58S FOG     WCI  19
SHERIDAN       FLURRIES  29  25  85 NW14      29.60F WCI  18
BUFFALO        LGT SNOW  27  22  81 N20       29.55S WCI  13
GILLETTE       LGT SNOW  29  28  96 NW13      29.55S FOG     WCI  19
HULETT         LGT SNOW  32  30  93 N3        29.54S VSB 3/4
NEWCASTLE      FAIR      32  30  93 NW10      29.52S WCI  24

$$
WYZ014>020-022>026-101>103-051200-
CENTRAL WYOMING

CITY           SKY/WX    TMP DP  RH WIND       PRES   REMARKS
BIG PINEY      LGT SNOW  22  17  81 NW31G47   29.64R WCI   4
PINEDALE       LGT SNOW  23  19  86 MISG      29.63R VSB 1
DUBOIS         CLOUDY    23  12  63 NW20G30   29.49F WCI   8
LANDER         MOCLDY    34  25  69 W10       29.49F WCI  26
RIVERTON       MOCLDY    31  22  69 NW12      29.50F WCI  22
CASPER         CLOUDY    36  25  64 SW21      29.50F WCI  25
DOUGLAS        MOCLDY    41  24  51 W29G38    29.50F

$$
WYZ021-027>030-104>119-051200-
SOUTHERN WYOMING

CITY           SKY/WX    TMP DP  RH WIND       PRES   REMARKS
EVANSTON       FLURRIES  29  22  75 W23       29.73R WCI  15
FORT BRIDGER   FLURRIES  32  31  96 W15G24    29.70S WCI  22
ROCK SPRINGS   FAIR      30  26  85 SW17G29   29.63F WCI  18
DIXON          CLOUDY    31  15  51 SW7       29.72F WCI  25
RAWLINS        CLOUDY    30  15  53 SW20G28   29.63F WCI  17
SARATOGA       CLOUDY    32  18  55 SW23G29   29.66F WCI  19
LARAMIE        CLOUDY    34  17  50 SW28G37   29.59F WCI  21
CHEYENNE       FAIR      42  18  37 W23G33    29.58F
TORRINGTON     FAIR      46  18  32 W17G29    29.54F
PINE BLUFFS    FAIR      27  16  63 CALM      29.60F

$$




USA.gov is the U.S. government's official web portal to all federal, state and local government web resources and services.